Location: Oshawa
(43.9000°N, 78.8670°W)
Time: 14:15:31
(UTC-04:00)

S-56A Canister/Altair - All Passes

Search period start: 25 April 2015 00:00
Search period end: 05 May 2015 00:00
Orbit: 635 x 2500 km, 38.9° (Epoch: 21 April)

Date Brightness Start Highest point End Pass type
(mag) Time Alt. Az. Time Alt. Az. Time Alt. Az.
25 Apr - 11:42:37 10° SW 11:47:24 34° SSE 11:53:59 10° E daylight
25 Apr - 13:44:44 10° WSW 13:50:55 61° S 14:00:23 10° E daylight
25 Apr - 15:47:49 10° W 15:55:23 53° SSW 16:06:42 10° ESE daylight
25 Apr - 17:52:01 10° W 18:00:14 30° SSW 18:10:49 10° SSE daylight
26 Apr - 11:10:58 10° SSW 11:15:19 29° SSE 11:21:04 10° E daylight
26 Apr - 13:12:49 10° WSW 13:18:37 58° S 13:27:19 10° E daylight
26 Apr - 15:15:47 10° W 15:22:51 54° SSW 15:33:33 10° ESE daylight
26 Apr - 17:19:42 10° W 17:27:34 32° SSW 17:38:02 10° SSE daylight
26 Apr - 19:29:18 10° SW 19:32:25 11° SW 19:34:44 10° SSW daylight
27 Apr - 10:39:21 10° SSW 10:43:15 24° SSE 10:48:11 10° E daylight
27 Apr - 12:40:58 10° WSW 12:46:21 55° S 12:54:19 10° E daylight
27 Apr - 14:43:48 10° W 14:50:25 55° S 15:00:27 10° ESE daylight
27 Apr - 16:47:29 10° W 16:54:58 33° SSW 17:05:10 10° SSE daylight
27 Apr - 18:55:26 10° WSW 18:59:45 12° SW 19:03:42 10° SSW daylight
28 Apr - 10:07:48 10° SSW 10:11:13 20° SSE 10:15:21 10° E daylight
28 Apr - 12:09:06 10° WSW 12:14:09 51° SSE 12:21:24 10° E daylight
28 Apr - 14:11:50 10° W 14:18:02 55° S 14:27:23 10° ESE daylight
28 Apr - 16:15:20 10° W 16:22:25 34° SSW 16:32:17 10° SE daylight
28 Apr - 18:22:13 10° WSW 18:27:07 14° SW 18:32:00 10° SSW daylight
29 Apr - 09:36:21 10° S 09:39:12 16° SE 09:42:30 10° ESE daylight
29 Apr - 11:37:15 10° WSW 11:42:00 47° SSE 11:48:34 10° E daylight
29 Apr - 13:39:55 10° W 13:45:42 55° S 13:54:22 10° ESE daylight
29 Apr - 15:43:14 10° W 15:49:56 36° SSW 15:59:24 10° SE daylight
29 Apr - 17:49:21 10° WSW 17:54:31 15° SW 18:00:00 10° S daylight
30 Apr - 09:05:05 10° S 09:07:10 13° SE 09:09:33 10° ESE daylight
30 Apr - 11:05:25 10° SW 11:09:54 42° SSE 11:15:49 10° E daylight
30 Apr - 13:07:59 10° W 13:13:25 55° S 13:21:25 10° ESE daylight
30 Apr - 15:11:12 10° W 15:17:30 37° SSW 15:26:30 10° SE daylight
30 Apr - 17:16:43 10° WSW 17:21:57 16° SSW 17:27:48 10° S daylight
01 May - 08:34:19 10° SSE 08:35:08 10° SE 08:36:08 10° SE daylight
01 May - 10:33:35 10° SW 10:37:50 37° SSE 10:43:10 10° E daylight
01 May - 12:36:05 10° WSW 12:41:12 54° S 12:48:32 10° ESE daylight
01 May - 14:39:11 10° W 14:45:07 38° SSW 14:53:37 10° SE daylight
01 May - 16:44:13 10° WSW 16:49:27 17° SSW 16:55:29 10° S daylight
02 May - 10:01:44 10° SW 10:05:46 33° SSE 10:10:35 10° E daylight
02 May - 12:04:11 10° WSW 12:09:01 53° S 12:15:45 10° ESE daylight
02 May - 14:07:13 10° W 14:12:47 39° SSW 14:20:46 10° SE daylight
02 May - 16:11:52 10° WSW 16:16:58 18° SSW 16:23:04 10° S daylight
03 May - 09:29:54 10° SW 09:33:44 29° SSE 09:38:05 10° E daylight
03 May - 11:32:16 10° WSW 11:36:53 51° S 11:43:03 10° ESE daylight
03 May - 13:35:16 10° W 13:40:31 40° SSW 13:47:58 10° SE daylight
03 May - 15:39:36 10° WSW 15:44:33 19° SSW 15:50:36 10° S daylight
04 May - 08:58:02 10° SSW 09:01:42 25° SSE 09:05:39 10° E daylight
04 May - 11:00:21 10° WSW 11:04:46 49° S 11:10:26 10° ESE daylight
04 May - 13:03:20 10° W 13:08:17 41° SSW 13:15:13 10° SE daylight
04 May - 15:07:24 10° WSW 15:12:11 20° SSW 15:18:07 10° SSE daylight
